Showing default

ZHUHAI-1 OHS-02, 43441

Orbit data source: Space-Track

ZHUHAI-1 OHS-02, 43441 is a payload satellite owned by Zhuhai Orbita (CN) in SSO that was launched on Thu, 26 Apr 2018 UTC via a CHANG ZHENG 11 launch vehicle from the Jiuquan Satellite Launch Center, China (JSC). Payloads include a variety of satellites, spacecraft, and rockets equipped with specific instruments for various scientific and technological missions. These include communications satellites like Starlink; space stations such as the ISS; scientific satellites like the Hubble; Earth observation satellites from companies like Planet Labs, Umbra, and HawkEye 360; GPS; miniature CubeSats for education and research; and military/defense satellites.

Loading next visibility...
ZHUHAI-1 OHS-02 details
Identifier
43441, 2018-040C
Orbit
SSO
Last TLE update5 hours ago
Origin
Flag of CNZhuhai Orbita (CN / PRC)
ManufacturerHarbin
MissionOperational Commercial Imaging
Bus & MotorOHS-1, Unknown motor
Mass~69 kg wet, ~69 kg dry
Launch date (UTC)
2018-04-26 (7 years ago)
Launch vehicle
CHANG ZHENG 11
Launch site
Jiuquan Satellite Launch Center, China (JSC)
Object type
Payload
Rocket body
Debris
Shape & HBRBox, 1 m
Radar Cross Section0.280 m², Medium (>0.1 m² and < 1m²)

Expand to show TLE details & history

TLE from 5 hours ago
0 ZHUHAI-1 OHS-02
1 43441U 18040C   25015.11717611  .00013212  00000-0  51594-3 0  9993
2 43441  97.1020  62.1384 0010884 287.6433  72.3618 15.25954836373889
Epoch: 2025-01-15T02:48Z
Definitive object data (Epoch: 2025-01-15T02:48:44.015Z)
Latitude0.00002°
Longitude-94.85912°
Altitude488.769 km
Speed7.622 km/s
True Right ascension04h 08m 33s
True Declination0° 00' 00"
Sunlit
Object was in full shadow at TLE epoch
Visualization TLE readout
Latitude38.26266°
Longitude-100.27363°
Altitude496.084 km
Speed7.619 km/s
Apparent Right ascension00h 20m 42s
Apparent Declination1° 37' 09"
Sunlit
Object is in full shadow
Visualization observer readout
Local Sidereal Time08:21:40
Azimuth291.762° WNW
Elevation-21.594°
Doppler factor1
Orbital elements
Apogee altitude492.335 km
Perigee altitude477.395 km
Semi-major axis6,863.002 km
Eccentricity0.0010884
Inclination97.102°
RAAN62.1384°
Arg. of periapsis287.6433°
True anomaly72.48071°
Mean anomaly72.3618°
Eccentric anomaly72.42125°
Mean motion3.81744 °/min
BSTAR0.00051594
Orbital period94.3 mins
Loading maneuver chart data...
Loading historical data...
Loading historical data...
Loading historical data...
Loading historical data...
Loading historical data...
Loading historical data...
Loading historical data...

ZHUHAI-1 OHS-02 Visibility forecast

Observer location: undefined°, undefined

Span
Click to sort rows by Start time (UTC) header in descending order
Start Az.
Max El. time (UTC)
Max El. Az.
Max El.
End time (UTC)
End Az.
6 mins2025-01-15 15:58:05.520Z5.269° NNE2025-01-15 16:01:05.520Z238.359° WSW42.168°2025-01-15 16:04:05.520Z199.635° SSW
5 mins2025-01-16 02:34:05.520Z126.655° SE2025-01-16 02:36:05.520Z71.672° E29.541°2025-01-16 02:39:05.520Z8.784° NNE
|